Skip Page Navigation
NASA JPL Caltech
NASA Logo - Jet Propulsion Laboratory + View the NASA Portal
+ Center for Near-Earth Object Studies
JPL Home Earth Solar System Stars & Galaxies Technology
JPL Solar System Dynamics
BODIES ORBITS EPHEMERIDES TOOLS PHYSICAL DATA DISCOVERY FAQ SITE MAP
JPL Small-Body Database Browser
Search: [ help ]  
183434 (2003 AL63)
Classification: Main-belt Asteroid          SPK-ID: 2183434
Ephemeris | Orbit Diagram | Orbital Elements | Mission Design | Physical Parameters | Discovery Circumstances | Close-Approach Data ]

[ show orbit diagram ]
Orbital Elements at Epoch 2459000.5 (2020-May-31.0) TDB
Reference: JPL 11 (heliocentric ecliptic J2000)
 Element Value Uncertainty (1-sigma)   Units 
e .08242430630824454 5.713e-08  
a 2.670790658380188 1.7675e-08 au
q 2.450652591068661 1.5651e-07 au
i .9892461302408861 5.481e-06 deg
node 260.6449235890805 0.00034008 deg
peri 223.0294532613037 0.00034251 deg
M 343.8015458515097 4.1277e-05 deg
tp 2459072.234697261498
(2020-Aug-10.73469726)
0.000183 TDB
period 1594.256512220705
4.36
1.5826e-05
4.333e-08
d
yr
n .2258105877193761 2.2416e-09 deg/d
Q 2.890928725691715 1.9132e-08 au
  Orbit Determination Parameters
   # obs. used (total)      274  
   data-arc span      8122 days (22.24 yr)  
   first obs. used      1997-11-02  
   last obs. used      2020-01-28  
   planetary ephem.      DE431  
   SB-pert. ephem.      SB431-N16  
   condition code      0  
   norm. resid. RMS      .55843  
   source      ORB  
   producer      Otto Matic  
   solution date      2020-Feb-24 19:36:27  

Additional Information
 Earth MOID = 1.46634 au 
 Jupiter MOID = 2.15261 au 
 T_jup = 3.376 
[ show covariance matrix ]

Ephemeris | Orbit Diagram | Orbital Elements | Mission Design | Physical Parameters | Discovery Circumstances | Close-Approach Data ]

Physical Parameter Table
Parameter Symbol Value Units Sigma Reference Notes
absolute magnitude H 16.5   n/a MPO454262  

183434 (2003 AL63)          Discovered 2003-Jan-08 by LINEAR at Socorro
Reference: 20080420/Numbers.arcLast Updated: 2008-04-23

[ show close-approach data ]
Alternate Designations
 2003 AL63 = 2006 VM62 
Ephemeris | Orbit Diagram | Orbital Elements | Mission Design | Physical Parameters | Discovery Circumstances | Close-Approach Data ]
ABOUT SSD CREDITS/AWARDS PRIVACY/COPYRIGHT GLOSSARY LINKS
FirstGov 2020-Jul-07 13:26 UT
(server date/time)  
NASA Home Page
Site Manager:   Ryan S. Park
Webmaster  Alan B. Chamberlin